User: anonymous   Login
Location: Caltech
(34.1382°N, 118.1253°W)
Time: 12:56:56
(UTC-07:00)
Language:

HO-68 - Orbit

View from above orbital plane
View from above orbital plane
View from above satellite
View from above satellite

Ground track
Ground track

The orbit data is extracted from the following two-line orbital elements,

1 36122U 09072B   15216.35502002 -.00000060  00000-0 -43517-4 0  9996
2 36122 100.1893 259.4340 0007565 011.9708 348.1580 13.16328645270797
Epoch (UTC): 04 August 2015 08:31:13
Eccentricity: 0.0007565
inclination: 100.1893°
perigee height: 1193 km
apogee height: 1204 km
right ascension of ascending node: 259.4340°
argument of perigee: 11.9708°
revolutions per day: 13.16328645
mean anomaly at epoch: 348.1580°
orbit number at epoch: 27079

The dashed part of the orbit path shows where the satellite is in the earth's shadow,  

DLR